Regional Weather Roundup
Issued by NWS

Home | Current Version | Previous Version | Graphics & Text | Print | Product List | Glossary On
Versions: 1 2 3 4 5 6 7 8 9 10 11 12 13 14 15 16 17 18 19 20 21 22 23 24 25 26 27 28 29 30 31 32 33 34 35 36 37 38 39 40 41 42 43 44 45 46 47 48 49 50
723
ASUS43 KOAX 250210
RWRNE

WEATHER ROUNDUP FOR NEBRASKA
NATIONAL WEATHER SERVICE OMAHA NE
900 PM CDT WED MAY 24 2017

NOTES: SATELLITE DATA IS BEING USED TO AUGMENT CLOUD COVER ABOVE
       12000 FEET.
       "FAIR" INDICATES FEW OR NO CLOUDS BELOW 12,000 FEET WITH NO
       SIGNIFICANT WEATHER AND/OR OBSTRUCTIONS TO VISIBILITY.

  * THESE STATIONS DO NOT REPORT WEATHER SUCH AS RAIN...SNOW OR FOG.

NEZ001>004-019>022-054>056-250300-
NEBRASKA PANHANDLE

CITY           SKY/WX    TMP DP  RH WIND       PRES   REMARKS
SCOTTSBLUFF    CLOUDY    77  46  33 W3        29.42S
ALLIANCE       CLEAR     67  46  47 SE15      29.44F
CHADRON        CLEAR     73  48  41 S25G33    29.35F
GORDON         FAIR      68  45  42 SE14G20   29.42F
KIMBALL        CLEAR     71  42  35 W6        29.53S
SIDNEY         PTCLDY    70  48  45 SW8       29.50S
$$

NEZ057>060-069>072-079>082-250300-
SOUTHWEST NEBRASKA

CITY           SKY/WX    TMP DP  RH WIND       PRES   REMARKS
NORTH PLATTE   CLEAR     64  43  46 SE12      29.55F
IMPERIAL       CLEAR     66  45  46 SE17      29.53S
LEXINGTON      CLEAR     62  43  49 SE10      29.61F
MCCOOK         CLEAR     65  45  48 SE10      29.58F
OGALLALA       CLEAR     69  45  42 SE15G21   29.51F
$$

NEZ005>010-023>029-035>040-094-250300-
NORTH CENTRAL NEBRASKA

CITY           SKY/WX    TMP DP  RH WIND       PRES   REMARKS
VALENTINE      CLEAR     66  39  37 SE13      29.49F
AINSWORTH      CLEAR     61  43  51 SE16      29.54F
BROKEN BOW     CLEAR     60  42  51 SE12      29.59F
O`NEILL        CLEAR     58  43  56 S7        29.61S
ORD            CLEAR     60  41  49 SE10      29.60F
THEDFORD       CLEAR     65  42  44 SE14G20   29.55S
$$

NEZ041-046>049-061>064-073>077-083>087-250300-
SOUTH CENTRAL NEBRASKA

CITY           SKY/WX    TMP DP  RH WIND       PRES   REMARKS
GRAND ISLAND   CLEAR     59  45  59 SE9       29.65F
AURORA         CLEAR     60  42  50 S5        29.65F
HASTINGS       CLEAR     61  42  49 SE9       29.65F
HEBRON         CLEAR     57  48  71 CALM      29.67S
HOLDREGE       CLEAR     59  42  53 SE10      29.63S
KEARNEY *      CLEAR     61  43  51 SE8       29.64S
YORK           CLEAR     59  41  51 S7        29.66S
$$

NEZ011>018-030>034-042>045-250300-
NORTHEAST NEBRASKA

CITY           SKY/WX    TMP DP  RH WIND       PRES   REMARKS
NORFOLK        CLEAR     56  44  64 S9        29.64R
ALBION         CLEAR     60  42  51 S7        29.63F
BLAIR          CLEAR     61  45  55 CALM      29.67S
FREMONT        CLEAR     62  42  48 E3        29.67S
TEKAMAH        CLEAR     61  51  70 SE3       29.66S
WAYNE          CLEAR     59  44  57 SE9       29.64F
$$

NEZ050>053-065>068-078-088>093-250300-
SOUTHEAST NEBRASKA

CITY           SKY/WX    TMP DP  RH WIND       PRES   REMARKS
LINCOLN        CLEAR     61  43  51 SE6       29.67S
OMAHA EPPLEY   PTCLDY    60  49  66 E5        29.66S
BEATRICE       CLEAR     61  46  57 CALM      29.67S
FALLS CITY     CLEAR     62  43  49 CALM      29.66S
NEBRASKA CITY  CLEAR     62  37  40 CALM      29.67S
PLATTSMOUTH    CLEAR     62  45  53 CALM      29.67S
$$

NEZ044-045-051>053-067-250300-
OMAHA AREA

CITY           SKY/WX    TMP DP  RH WIND       PRES   REMARKS
OMAHA EPPLEY   PTCLDY    60  49  66 E5        29.66S
BLAIR          CLEAR     61  45  55 CALM      29.67S
FREMONT        CLEAR     62  42  48 E3        29.67S
MILLARD        CLEAR     60  48  62 CALM      29.67R
OFFUTT AFB     CLEAR     56  48  73 CALM      29.66S
PLATTSMOUTH    CLEAR     62  45  53 CALM      29.67S
WAHOO          FAIR      58  45  61 SE6       29.67R
$$




USA.gov is the U.S. government's official web portal to all federal, state and local government web resources and services.